Location: Eaton
(41.3139°N, 82.0207°W)
Time: 16:57:19
(UTC+00:00)

Lacrosse 5 rocket - Pass Details

Date: 17 June 2021
Orbit: 460 x 633 km, 57.0° (Epoch: 02 August)

Event Time Altitude Azimuth Distance (km) Brightness Sun altitude
Rises 04:50:48 0° 273° (W) 2,512 4.9 -24.7°
Reaches altitude 10° 04:53:46 10° 299° (WNW) 1,620 4.2 -24.8°
Maximum altitude 04:55:49 14° 334° (NNW) 1,366 4.2 -24.8°
Drops below altitude 10° 04:57:51 10° 9° (N) 1,611 4.7 -24.9°
Sets 05:00:48 0° 35° (NE) 2,489 5.4 -25.0°
